Home   Weather   Whitehorse   Past weeks

Flag for Canada Past Weather in Whitehorse, Yukon, Canada — Yesterday and Last 2 Weeks

Now
57 °F

Partly sunny.


Feels Like: 54 °F
Forecast: 40 / 61 °F
Wind: 14 mph from Southeast

Location: Whitehorse

Current Time: Aug 17, 2017 at 6:12:37 pm

Latest Report: Aug 17, 2017 at 5:00 pm


Visibility: 40 mi

Pressure: 29.62 "Hg (27.45 "Hg at 640m altitude)

Humidity: 51%

Dew Point: 39 °F

Location of WhitehorseLocation

Past Weather in Whitehorse — Graph

°F

Whitehorse Temperature Yesterday

Maximum temperature yesterday: 64 °F (at 4:00 pm)
Minimum temperature yesterday: 39 °F (at 7:00 am)
Average temperature yesterday: 53 °F

High & Low Weather Summary for the Past Weeks

 TemperatureHumidityPressure
High84 °F (Aug 9, 5:00 pm)88% (Aug 4, 7:00 am)30.32 "Hg (Aug 4, 7:00 am)
Low37 °F (Aug 15, 7:00 am)19% (Aug 9, 6:00 pm)29.47 "Hg (Aug 13, 4:00 am)
Average62 °F53%29.91 "Hg
* Reported Aug 2 4:00 pm — Aug 17 4:00 pm, Whitehorse. Weather by CustomWeather, © 2017

Note: Actual official high and low records may vary slightly from our data, if they occured in-between our weather recording intervals... More about our weather records

Advertising

Whitehorse Weather History for the Previous 24 Hours

Scroll right to see more
 ConditionsComfort  
Time TempWeatherWind HumidityBarometerVisibility
4:00 pm
Thu, Aug 17
57 °FOvercast.17 mph51%29.64 "Hg30 mi
3:00 pm55 °FOvercast.17 mph51%29.66 "Hg30 mi
2:00 pm55 °FOvercast.17 mph51%29.67 "Hg40 mi
1:09 pm57 °FPartly sunny.14 mph51%29.68 "Hg40 mi
12:00 pm55 °FPartly sunny.14 mph55%29.69 "Hg40 mi
11:08 am54 °FPartly sunny.15 mph58%29.70 "Hg40 mi
10:00 am52 °FPartly sunny.10 mph62%29.72 "Hg40 mi
9:00 am52 °FBroken clouds.15 mph62%29.72 "Hg40 mi
8:00 am50 °FBroken clouds.9 mph67%29.72 "Hg40 mi
7:00 am50 °FBroken clouds.13 mph67%29.73 "Hg40 mi
6:00 am50 °FMostly cloudy.5 mph67%29.73 "Hg40 mi
5:00 am50 °FPassing clouds.6 mph71%29.72 "Hg15 mi
4:00 am50 °FPassing clouds.8 mph71%29.71 "Hg15 mi
3:00 am52 °FMostly cloudy.8 mph72%29.72 "Hg15 mi
2:00 am54 °FMostly cloudy.5 mph63%29.71 "Hg15 mi
1:00 am54 °FMostly cloudy.7 mph72%29.70 "Hg15 mi
12:00 am55 °FMostly cloudy.6 mph63%29.70 "Hg15 mi
11:00 pm
Wed, Aug 16
57 °FPassing clouds.12 mph55%29.67 "Hg15 mi
10:00 pm55 °FMostly cloudy.14 mph67%29.67 "Hg40 mi
9:00 pm59 °FPartly sunny.9 mph51%29.67 "Hg40 mi
8:00 pm59 °FBroken clouds.6 mph55%29.68 "Hg40 mi
7:00 pm61 °FPartly sunny.13 mph55%29.67 "Hg40 mi
6:00 pm64 °FPartly sunny.12 mph46%29.66 "Hg40 mi
Weather by CustomWeather, © 2017

See weather overviewHow to use our weather pages